Location: Goettingen
(51.5300°N, 9.9433°E)
Time: 14:20:09
(UTC+01:00)

ISS - Pass Details

Date: 23 January 2021
Orbit: 418 x 421 km, 51.6° (Epoch: 24 January)

Event Time Altitude Azimuth Distance (km) Brightness Sun altitude
Rises 17:54:19 0° 221° (SW) 2,361 1.2 -9.3°
Reaches altitude 10° 17:56:34 10° 210° (SSW) 1,500 -0.2 -9.6°
Maximum altitude 17:59:31 28° 149° (SSE) 817 -2.4 -10.1°
Enters shadow 18:01:49 14° 94° (E) 1,284 -1.9 -10.4°
